Time,TemperatureF,DewpointF,PressureIn,WindDirection,WindDirectionDegrees,WindSpeedMPH,WindSpeedGustMPH,Humidity,HourlyPrecipIn,Conditions,Clouds,dailyrainin,SoftwareType,DateUTC
2013-01-30 00:03:00,33.5,31.3,30.11,NNE,23,0.0,0.0,92,0.00,,,0.00,WUHU216HW,2013-01-30 08:03:00,
2013-01-30 00:28:00,33.5,31.3,30.11,NNE,23,0.0,0.0,92,0.00,,,0.00,WUHU216HW,2013-01-30 08:28:00,
2013-01-30 00:33:00,33.5,31.3,30.11,NNE,23,0.0,0.0,92,0.00,,,0.00,WUHU216HW,2013-01-30 08:33:00,
2013-01-30 00:58:00,33.5,31.3,30.11,NNE,23,0.0,0.0,92,0.00,,,0.00,WUHU216HW,2013-01-30 08:58:00,
2013-01-30 01:03:00,33.5,31.3,30.11,NNE,23,0.0,0.0,92,0.00,,,0.00,WUHU216HW,2013-01-30 09:03:00,
2013-01-30 01:28:00,33.3,31.1,30.11,NNE,23,0.0,0.0,92,0.00,,,0.00,WUHU216HW,2013-01-30 09:28:00,
2013-01-30 01:33:00,33.3,31.1,30.11,NNE,23,0.0,0.0,92,0.00,,,0.00,WUHU216HW,2013-01-30 09:33:00,
2013-01-30 01:58:00,33.3,31.1,30.11,NNE,23,0.0,0.0,92,0.00,,,0.00,WUHU216HW,2013-01-30 09:58:00,
2013-01-30 02:03:00,33.3,31.1,30.11,NNE,23,0.0,0.0,92,0.00,,,0.00,WUHU216HW,2013-01-30 10:03:00,
2013-01-30 02:28:00,33.3,31.1,30.11,NNE,23,0.0,0.0,92,0.00,,,0.00,WUHU216HW,2013-01-30 10:28:00,
2013-01-30 02:33:00,33.3,31.1,30.11,NNE,23,0.0,0.0,92,0.00,,,0.00,WUHU216HW,2013-01-30 10:33:00,
2013-01-30 02:58:00,33.3,31.1,30.10,NNE,23,0.0,0.0,92,0.00,,,0.00,WUHU216HW,2013-01-30 10:58:00,
2013-01-30 03:03:00,33.3,31.1,30.10,NNE,23,0.0,0.0,92,0.00,,,0.00,WUHU216HW,2013-01-30 11:03:00,
2013-01-30 03:28:00,33.3,31.1,30.10,NNE,23,0.0,0.0,92,0.00,,,0.00,WUHU216HW,2013-01-30 11:28:00,
2013-01-30 03:33:00,33.3,31.1,30.10,NNE,23,0.0,0.0,92,0.00,,,0.00,WUHU216HW,2013-01-30 11:33:00,
2013-01-30 03:58:00,33.3,31.1,30.11,NNE,23,0.0,0.0,92,0.00,,,0.00,WUHU216HW,2013-01-30 11:58:00,
2013-01-30 04:03:00,33.3,31.1,30.11,NNE,23,0.0,0.0,92,0.00,,,0.00,WUHU216HW,2013-01-30 12:03:00,
2013-01-30 04:28:00,33.3,31.1,30.10,NNE,23,0.0,0.0,92,0.00,,,0.00,WUHU216HW,2013-01-30 12:28:00,
2013-01-30 04:33:00,33.3,31.1,30.10,NNE,23,0.0,0.0,92,0.00,,,0.00,WUHU216HW,2013-01-30 12:33:00,
2013-01-30 04:58:00,33.3,31.1,30.10,NNE,23,0.0,0.0,92,0.00,,,0.00,WUHU216HW,2013-01-30 12:58:00,
2013-01-30 05:03:00,33.3,31.1,30.10,NNE,23,0.0,0.0,92,0.00,,,0.00,WUHU216HW,2013-01-30 13:03:00,
2013-01-30 05:28:00,33.1,31.1,30.11,NNE,23,0.0,0.0,92,0.00,,,0.00,WUHU216HW,2013-01-30 13:28:00,
2013-01-30 05:33:00,33.1,31.1,30.11,NNE,23,0.0,0.0,92,0.00,,,0.00,WUHU216HW,2013-01-30 13:33:00,
2013-01-30 05:58:00,33.3,31.1,30.11,NNE,23,0.0,0.0,92,0.00,,,0.00,WUHU216HW,2013-01-30 13:58:00,
2013-01-30 06:03:00,33.3,31.1,30.11,NNE,23,0.0,0.0,92,0.00,,,0.00,WUHU216HW,2013-01-30 14:03:00,
2013-01-30 06:08:00,33.3,31.1,30.11,NNE,23,0.0,0.0,92,0.00,,,0.00,WUHU216HW,2013-01-30 14:08:00,
2013-01-30 06:28:00,33.3,31.1,30.11,NNE,23,0.0,0.0,92,0.00,,,0.00,WUHU216HW,2013-01-30 14:28:00,
2013-01-30 06:33:00,33.3,31.1,30.11,NNE,23,0.0,0.0,92,0.00,,,0.00,WUHU216HW,2013-01-30 14:33:00,
2013-01-30 06:58:00,33.7,31.8,30.12,NNE,23,0.0,0.0,93,0.00,,,0.00,WUHU216HW,2013-01-30 14:58:00,
2013-01-30 07:03:00,33.7,31.8,30.12,NNE,23,0.0,0.0,93,0.00,,,0.00,WUHU216HW,2013-01-30 15:03:00,
2013-01-30 07:08:00,33.7,31.8,30.12,NNE,23,0.0,0.0,93,0.00,,,0.00,WUHU216HW,2013-01-30 15:08:00,
2013-01-30 07:28:00,33.5,31.3,30.13,NNE,23,0.0,0.0,92,0.00,,,0.00,WUHU216HW,2013-01-30 15:28:00,
2013-01-30 07:33:00,33.5,31.3,30.13,NNE,23,0.0,0.0,92,0.00,,,0.00,WUHU216HW,2013-01-30 15:33:00,
2013-01-30 07:58:00,33.5,31.6,30.14,NNE,23,0.0,0.0,93,0.00,,,0.00,WUHU216HW,2013-01-30 15:58:00,
2013-01-30 08:03:00,33.5,31.6,30.14,NNE,23,0.0,0.0,93,0.00,,,0.00,WUHU216HW,2013-01-30 16:03:00,
2013-01-30 08:08:00,33.5,31.6,30.14,NNE,23,0.0,0.0,93,0.00,,,0.00,WUHU216HW,2013-01-30 16:08:00,
2013-01-30 08:28:00,33.8,32.2,30.15,NNE,23,0.0,0.0,94,0.00,,,0.00,WUHU216HW,2013-01-30 16:28:00,
2013-01-30 08:33:00,33.8,32.2,30.15,NNE,23,0.0,0.0,94,0.00,,,0.00,WUHU216HW,2013-01-30 16:33:00,
2013-01-30 08:58:00,34.2,32.6,30.15,NNE,23,0.0,0.0,94,0.00,,,0.00,WUHU216HW,2013-01-30 16:58:00,
2013-01-30 09:03:00,34.2,32.6,30.15,NNE,23,0.0,0.0,94,0.00,,,0.00,WUHU216HW,2013-01-30 17:03:00,
2013-01-30 09:08:00,34.2,32.6,30.15,NNE,23,0.0,0.0,94,0.00,,,0.00,WUHU216HW,2013-01-30 17:08:00,
2013-01-30 09:28:00,34.6,32.7,30.15,NNE,23,0.0,0.0,93,0.00,,,0.00,WUHU216HW,2013-01-30 17:28:00,
2013-01-30 09:33:00,34.6,32.7,30.15,NNE,23,0.0,0.0,93,0.00,,,0.00,WUHU216HW,2013-01-30 17:33:00,
2013-01-30 09:58:00,35.3,33.4,30.16,NE,45,0.0,0.0,93,0.00,,,0.00,WUHU216HW,2013-01-30 17:58:00,
2013-01-30 10:03:00,35.3,33.4,30.16,NE,45,0.0,0.0,93,0.00,,,0.00,WUHU216HW,2013-01-30 18:03:00,
2013-01-30 10:28:00,36.4,34.2,30.17,South,180,0.0,0.0,92,0.03,,,0.00,WUHU216HW,2013-01-30 18:28:00,
2013-01-30 10:33:00,36.4,34.2,30.17,South,180,0.0,0.0,92,0.03,,,0.00,WUHU216HW,2013-01-30 18:33:00,
2013-01-30 10:58:00,36.5,34.4,30.17,SSW,203,0.7,0.7,92,0.05,,,0.03,WUHU216HW,2013-01-30 18:58:00,
2013-01-30 11:03:00,36.5,34.4,30.17,SSW,203,0.7,0.7,92,0.05,,,0.03,WUHU216HW,2013-01-30 19:03:00,
2013-01-30 11:28:00,36.7,34.6,30.16,SSW,203,1.8,1.8,92,0.05,,,0.05,WUHU216HW,2013-01-30 19:28:00,
2013-01-30 11:33:00,36.7,34.6,30.16,SSW,203,1.8,1.8,92,0.05,,,0.05,WUHU216HW,2013-01-30 19:33:00,
2013-01-30 11:58:00,37.1,34.7,30.16,SSW,203,1.1,1.1,91,0.04,,,0.08,WUHU216HW,2013-01-30 19:58:00,
2013-01-30 12:03:00,37.1,34.7,30.16,SSW,203,1.1,1.1,91,0.04,,,0.08,WUHU216HW,2013-01-30 20:03:00,
2013-01-30 12:28:00,37.8,35.4,30.17,WNW,293,0.2,0.2,91,0.02,,,0.09,WUHU216HW,2013-01-30 20:28:00,
2013-01-30 12:33:00,37.8,35.4,30.17,WNW,293,0.2,0.2,91,0.02,,,0.09,WUHU216HW,2013-01-30 20:33:00,
2013-01-30 12:58:00,38.5,35.8,30.16,ENE,68,0.7,0.7,90,0.02,,,0.10,WUHU216HW,2013-01-30 20:58:00,
2013-01-30 13:03:00,38.5,35.8,30.16,ENE,68,0.7,0.7,90,0.02,,,0.10,WUHU216HW,2013-01-30 21:03:00,
2013-01-30 13:28:00,39.1,36.4,30.17,West,270,0.0,0.0,90,0.02,,,0.11,WUHU216HW,2013-01-30 21:28:00,
2013-01-30 13:33:00,39.1,36.4,30.17,West,270,0.0,0.0,90,0.02,,,0.11,WUHU216HW,2013-01-30 21:33:00,
2013-01-30 13:58:00,40.5,37.8,30.17,NNW,338,1.1,1.1,90,0.01,,,0.12,WUHU216HW,2013-01-30 21:58:00,
2013-01-30 14:03:00,40.5,37.8,30.17,NNW,338,1.1,1.1,90,0.01,,,0.12,WUHU216HW,2013-01-30 22:03:00,
2013-01-30 14:28:00,40.3,37.6,30.16,ENE,68,0.7,0.7,90,0.00,,,0.12,WUHU216HW,2013-01-30 22:28:00,
2013-01-30 14:33:00,40.3,37.6,30.16,ENE,68,0.7,0.7,90,0.00,,,0.12,WUHU216HW,2013-01-30 22:33:00,
2013-01-30 14:58:00,39.6,36.6,30.17,NE,45,1.1,1.1,89,0.00,,,0.12,WUHU216HW,2013-01-30 22:58:00,
2013-01-30 15:03:00,39.6,36.6,30.17,NE,45,1.1,1.1,89,0.00,,,0.12,WUHU216HW,2013-01-30 23:03:00,
2013-01-30 15:28:00,39.6,36.6,30.18,North,0,0.4,0.4,89,0.00,,,0.12,WUHU216HW,2013-01-30 23:28:00,
2013-01-30 15:33:00,39.6,36.6,30.18,North,0,0.4,0.4,89,0.00,,,0.12,WUHU216HW,2013-01-30 23:33:00,
2013-01-30 15:58:00,39.8,36.8,30.18,North,0,0.0,0.0,89,0.00,,,0.12,WUHU216HW,2013-01-30 23:58:00,
2013-01-30 16:03:00,39.8,36.8,30.18,North,0,0.0,0.0,89,0.00,,,0.12,WUHU216HW,2013-01-31 00:03:00,
2013-01-30 16:08:00,39.8,36.8,30.18,North,0,0.0,0.0,89,0.00,,,0.12,WUHU216HW,2013-01-31 00:08:00,
2013-01-30 16:28:00,39.2,36.5,30.18,WSW,248,0.0,0.0,90,0.00,,,0.12,WUHU216HW,2013-01-31 00:28:00,
2013-01-30 16:33:00,39.2,36.5,30.18,WSW,248,0.0,0.0,90,0.00,,,0.12,WUHU216HW,2013-01-31 00:33:00,
2013-01-30 16:58:00,37.6,34.9,30.19,NNE,23,0.0,0.0,90,0.00,,,0.12,WUHU216HW,2013-01-31 00:58:00,
2013-01-30 17:03:00,37.6,34.9,30.19,NNE,23,0.0,0.0,90,0.00,,,0.12,WUHU216HW,2013-01-31 01:03:00,
2013-01-30 17:08:00,37.6,34.9,30.19,NNE,23,0.0,0.0,90,0.00,,,0.12,WUHU216HW,2013-01-31 01:08:00,
2013-01-30 17:28:00,36.9,34.2,30.19,SSW,203,0.0,0.0,90,0.00,,,0.12,WUHU216HW,2013-01-31 01:28:00,
2013-01-30 17:33:00,36.9,34.2,30.19,SSW,203,0.0,0.0,90,0.00,,,0.12,WUHU216HW,2013-01-31 01:33:00,
2013-01-30 17:58:00,36.4,33.9,30.19,SSW,203,1.1,1.1,91,0.00,,,0.12,WUHU216HW,2013-01-31 01:58:00,
2013-01-30 18:03:00,36.4,33.9,30.19,SSW,203,1.1,1.1,91,0.00,,,0.12,WUHU216HW,2013-01-31 02:03:00,
2013-01-30 18:28:00,35.6,33.5,30.19,SSW,203,0.0,0.0,92,0.00,,,0.12,WUHU216HW,2013-01-31 02:28:00,
2013-01-30 18:33:00,35.6,33.5,30.19,SSW,203,0.0,0.0,92,0.00,,,0.12,WUHU216HW,2013-01-31 02:33:00,
2013-01-30 18:58:00,34.9,32.8,30.20,SW,225,0.0,0.0,92,0.00,,,0.12,WUHU216HW,2013-01-31 02:58:00,
2013-01-30 19:03:00,34.9,32.8,30.20,SW,225,0.0,0.0,92,0.00,,,0.12,WUHU216HW,2013-01-31 03:03:00,
2013-01-30 19:08:00,34.9,32.8,30.20,SW,225,0.0,0.0,92,0.00,,,0.12,WUHU216HW,2013-01-31 03:08:00,
2013-01-30 19:28:00,34.4,32.2,30.20,North,0,0.0,0.0,92,0.00,,,0.12,WUHU216HW,2013-01-31 03:28:00,
2013-01-30 19:33:00,34.4,32.2,30.20,North,0,0.0,0.0,92,0.00,,,0.12,WUHU216HW,2013-01-31 03:33:00,
2013-01-30 19:58:00,34.0,31.9,30.20,North,0,0.0,0.0,92,0.00,,,0.12,WUHU216HW,2013-01-31 03:58:00,
2013-01-30 20:03:00,34.0,31.9,30.20,North,0,0.0,0.0,92,0.00,,,0.12,WUHU216HW,2013-01-31 04:03:00,
2013-01-30 20:28:00,33.7,31.5,30.19,SW,225,0.7,0.7,92,0.00,,,0.12,WUHU216HW,2013-01-31 04:28:00,
2013-01-30 20:33:00,33.7,31.5,30.19,SW,225,0.7,0.7,92,0.00,,,0.12,WUHU216HW,2013-01-31 04:33:00,
2013-01-30 20:58:00,32.4,30.3,30.19,NE,45,0.0,0.0,92,0.00,,,0.12,WUHU216HW,2013-01-31 04:58:00,
2013-01-30 21:00:00,32.4,30.3,30.19,NE,45,0.0,0.0,92,0.00,,,0.12,WUHU216HW,2013-01-31 05:00:00,
2013-01-30 21:01:00,32.4,30.3,30.19,NE,45,0.0,0.0,92,0.00,,,0.12,WUHU216HW,2013-01-31 05:01:00,
2013-01-30 21:02:00,32.4,30.3,30.19,NE,45,0.0,0.0,92,0.00,,,0.12,WUHU216HW,2013-01-31 05:02:00,
2013-01-30 21:07:00,32.4,30.3,30.19,NE,45,0.0,0.0,92,0.00,,,0.12,WUHU216HW,2013-01-31 05:07:00,
2013-01-30 21:28:00,32.0,29.8,30.20,NW,315,0.0,0.0,91,0.00,,,0.12,WUHU216HW,2013-01-31 05:28:00,
2013-01-30 21:33:00,32.0,29.8,30.20,NW,315,0.0,0.0,91,0.00,,,0.12,WUHU216HW,2013-01-31 05:33:00,
2013-01-30 21:58:00,32.0,30.1,30.20,NNE,23,0.0,0.0,92,0.00,,,0.12,WUHU216HW,2013-01-31 05:58:00,
2013-01-30 22:03:00,32.0,30.1,30.20,NNE,23,0.0,0.0,92,0.00,,,0.12,WUHU216HW,2013-01-31 06:03:00,
2013-01-30 22:28:00,32.2,30.2,30.20,WSW,248,0.0,0.0,92,0.00,,,0.12,WUHU216HW,2013-01-31 06:28:00,
2013-01-30 22:33:00,32.2,30.2,30.20,WSW,248,0.0,0.0,92,0.00,,,0.12,WUHU216HW,2013-01-31 06:33:00,
2013-01-30 22:58:00,32.0,30.1,30.21,SW,225,0.4,0.4,92,0.00,,,0.12,WUHU216HW,2013-01-31 06:58:00,
2013-01-30 23:03:00,32.0,30.1,30.21,SW,225,0.4,0.4,92,0.00,,,0.12,WUHU216HW,2013-01-31 07:03:00,
2013-01-30 23:28:00,32.0,30.1,30.22,SW,225,0.7,0.7,92,0.00,,,0.12,WUHU216HW,2013-01-31 07:28:00,
2013-01-30 23:33:00,32.0,30.1,30.22,SW,225,0.7,0.7,92,0.00,,,0.12,WUHU216HW,2013-01-31 07:33:00,
2013-01-30 23:58:00,32.2,30.2,30.23,SW,225,1.1,1.1,92,0.00,,,0.00,WUHU216HW,2013-01-31 07:58:00,